| time (UTC) | temp C | wind direction | speed KPH | gust KPH | rain 1hr cm | rain 24hr cm | rain mn cm | humidity % | barometer mb |
| 20260505070005 | 7 | 181 | 17.7 | 32.2 | 0.00 | 0.71 | 0.00 | 84 | 1008.2 |
| 20260505064502 | 7 | 357 | 17.7 | 27.4 | 0.00 | 0.71 | 0.00 | 84 | 1007.8 |
| 20260505063104 | 7 | 186 | 19.3 | 29.0 | 0.00 | 0.71 | 0.00 | 84 | 1007.6 |
| 20260505061602 | 7 | 357 | 16.1 | 29.0 | 0.00 | 0.71 | 0.00 | 83 | 1007.3 |
| 20260505060052 | 7 | 357 | 17.7 | 29.0 | 0.00 | 0.79 | 0.00 | 84 | 1007.0 |
| 20260505054550 | 7 | 191 | 11.3 | 20.9 | 0.00 | 0.79 | 0.00 | 84 | 1006.7 |
| 20260505053046 | 7 | 208 | 11.3 | 22.5 | 0.00 | 0.79 | 0.00 | 82 | 1006.4 |
| 20260505051542 | 8 | 187 | 14.5 | 25.7 | 0.00 | 0.79 | 0.00 | 81 | 1006.3 |
| 20260505050117 | 8 | 233 | 9.7 | 25.7 | 0.00 | 0.84 | 0.00 | 80 | 1006.0 |
| 20260505041548 | 8 | 102 | 9.7 | 17.7 | 0.00 | 0.84 | 0.00 | 80 | 1005.4 |
| 20260505040031 | 8 | 295 | 4.8 | 22.5 | 0.00 | 0.86 | 0.00 | 80 | 1005.2 |
| 20260505034527 | 8 | 182 | 6.4 | 19.3 | 0.00 | 0.86 | 0.00 | 81 | 1005.0 |
| 20260505033024 | 8 | 188 | 8.0 | 20.9 | 0.00 | 0.86 | 0.00 | 82 | 1004.8 |
| 20260505031522 | 8 | 202 | 4.8 | 12.9 | 0.00 | 0.86 | 0.00 | 84 | 1004.7 |
| 20260505030020 | 8 | 140 | 6.4 | 12.9 | 0.00 | 0.89 | 0.86 | 83 | 1004.5 |
| 20260505024521 | 8 | 235 | 4.8 | 12.9 | 0.00 | 0.89 | 0.86 | 82 | 1004.4 |
| 20260505023016 | 8 | 347 | 1.6 | 12.9 | 0.00 | 0.89 | 0.86 | 81 | 1004.1 |
| 20260505021514 | 8 | 357 | 6.4 | 24.1 | 0.00 | 0.89 | 0.86 | 79 | 1003.9 |
| 20260505020017 | 9 | 198 | 9.7 | 27.4 | 0.00 | 0.97 | 0.86 | 77 | 1003.7 |
| 20260505014510 | 9 | 286 | 14.5 | 27.4 | 0.00 | 0.97 | 0.86 | 75 | 1003.5 |
| 20260505013007 | 9 | 357 | 11.3 | 29.0 | 0.00 | 0.97 | 0.86 | 75 | 1003.3 |
| 20260505011509 | 9 | 194 | 9.7 | 27.4 | 0.00 | 0.97 | 0.86 | 74 | 1003.4 |
| 20260505010003 | 10 | 177 | 12.9 | 30.6 | 0.00 | 1.14 | 0.86 | 72 | 1003.2 |
| 20260505004501 | 9 | 220 | 17.7 | 30.6 | 0.00 | 1.14 | 0.86 | 71 | 1003.0 |
| 20260505003104 | 10 | 214 | 8.0 | 27.4 | 0.00 | 1.14 | 0.86 | 68 | 1002.9 |
| 20260505001631 | 10 | 256 | 12.9 | 35.4 | 0.00 | 1.14 | 0.86 | 65 | 1002.7 |
| 20260505000135 | 10 | 221 | 17.7 | 40.2 | 0.00 | 1.55 | 0.86 | 64 | 1002.7 |
| 20260504234611 | 10 | 357 | 14.5 | 32.2 | 0.00 | 1.55 | 0.86 | 65 | 1002.2 |
| 20260504233104 | 10 | 357 | 16.1 | 30.6 | 0.00 | 1.55 | 0.86 | 64 | 1002.0 |
| 20260504231551 | 10 | 216 | 16.1 | 33.8 | 0.00 | 1.55 | 0.86 | 63 | 1001.8 |
| 20260504230049 | 10 | 206 | 22.5 | 32.2 | 0.00 | 1.75 | 0.86 | 61 | 1001.5 |
| 20260504224604 | 10 | 180 | 20.9 | 35.4 | 0.00 | 1.75 | 0.86 | 60 | 1001.5 |
| 20260504223047 | 11 | 216 | 11.3 | 30.6 | 0.00 | 1.75 | 0.86 | 60 | 1001.4 |
| 20260504221546 | 11 | 184 | 17.7 | 33.8 | 0.00 | 1.75 | 0.86 | 59 | 1001.3 |
| 20260504220044 | 11 | 206 | 20.9 | 32.2 | 0.00 | 2.13 | 0.86 | 57 | 1001.2 |
| 20260504214542 | 11 | 250 | 17.7 | 40.2 | 0.00 | 2.13 | 0.86 | 57 | 1001.0 |
| 20260504213100 | 11 | 220 | 9.7 | 29.0 | 0.00 | 2.13 | 0.86 | 60 | 1000.8 |
| 20260504211540 | 11 | 88 | 4.8 | 29.0 | 0.00 | 2.13 | 0.86 | 61 | 1000.7 |
| 20260504210036 | 11 | 257 | 9.7 | 38.6 | 0.00 | 2.18 | 0.86 | 58 | 1000.6 |
| 20260504204534 | 11 | 186 | 11.3 | 29.0 | 0.00 | 2.18 | 0.86 | 63 | 1000.3 |
| 20260504203035 | 10 | 298 | 9.7 | 20.9 | 0.00 | 2.18 | 0.86 | 68 | 1000.2 |
| 20260504201534 | 10 | 357 | 9.7 | 32.2 | 0.00 | 2.18 | 0.86 | 67 | 1000.0 |
| 20260504200026 | 10 | 253 | 6.4 | 22.5 | 0.00 | 2.29 | 0.86 | 70 | 999.6 |
| 20260504194523 | 10 | 54 | 6.4 | 37.0 | 0.00 | 2.29 | 0.86 | 72 | 999.3 |
| 20260504193021 | 10 | 58 | 11.3 | 24.1 | 0.00 | 2.29 | 0.86 | 75 | 999.0 |
| 20260504191518 | 9 | 99 | 6.4 | 22.5 | 0.00 | 2.29 | 0.86 | 77 | 999.0 |
| 20260504190013 | 8 | 224 | 4.8 | 32.2 | 0.00 | 2.36 | 0.86 | 80 | 998.8 |
| 20260504184512 | 8 | 195 | 3.2 | 14.5 | 0.00 | 2.36 | 0.86 | 84 | 998.8 |
| 20260504183007 | 7 | 230 | 4.8 | 25.7 | 0.00 | 2.36 | 0.86 | 85 | 998.6 |
| 20260504181503 | 7 | 357 | 8.0 | 25.7 | 0.00 | 2.36 | 0.86 | 86 | 998.4 |
| 20260504180001 | 7 | 297 | 3.2 | 17.7 | 0.00 | 2.36 | 0.86 | 86 | 998.2 |
| 20260504174616 | 7 | 222 | 8.0 | 25.7 | 0.00 | 2.36 | 0.86 | 85 | 998.0 |
| 20260504173059 | 7 | 304 | 8.0 | 22.5 | 0.00 | 2.36 | 0.86 | 86 | 997.9 |
| 20260504171555 | 6 | 231 | 14.5 | 29.0 | 0.03 | 2.36 | 0.86 | 86 | 997.5 |
| 20260504120112 | 3 | 190 | 17.7 | 37.0 | 0.05 | 1.88 | 0.38 | 90 | 987.7 |
| 20260504110119 | 3 | 357 | 14.5 | 54.7 | 0.00 | 1.83 | 0.33 | 91 | 984.5 |
| 20260504081537 | 3 | 357 | 11.3 | 24.1 | 0.10 | 1.75 | 0.25 | 95 | 976.6 |